Погода в Трескине

Россия / Пензенская область     52°41′19″N   44°39′01″E
темп.,
°C
ветер,
м/с
пор.,
м/с
влажн.,
%
обл.,
%
осадки,
мм/ч
давл.,
гПа
погр.,
м
14 апреля, ср
ср1400:00+10юв4116227 0.0 1028172
03:00+8юв48645 0.0 1027106
06:00+7вюв49695 0.0 1026129
09:00+13вюв611526 0.0 1025401
12:00+17юв79390 0.0 10241076
15:00+18юв79340 0.0 10221531
18:00+16юв48436 0.0 1021207
21:00+12вюв4105827 0.0 1021167
15 апреля, чт
чт1500:00+10вюв496640 0.0 1020142
03:00+8вюв487582 0.0 1020113
06:00+8вюв4778100 0.0 1019112
09:00+14в4757100 0.0 1018259
12:00+18вюв564199 0.0 1017950
15:00+20юв4536100 0.0 10161565
18:00+18вюв3349100 0.0 101640
21:00+14в336159 0.0 101639
16 апреля, пт
пт1600:00+12в4666100 0.0 101681
03:00+10в3369100 0.0 101739
06:00+9всв3672100 0.0 101790
09:00+15в4648100 0.0 1018339
12:00+19в4635100 0.0 10181451
15:00+19в4531100 0.0 10182568
18:00+17вюв2343100 0.0 101846
21:00+13всв5106499 0.0 1019288
17 апреля, сб
сб1700:00+11всв51183100 0.0 1020308
03:00+8всв5108797 0.0 1021263
06:00+8всв6118894 0.0 1022282
09:00+12всв79705 0.0 1022567
12:00+16в78525 0.0 10221259
15:00+17в784963 0.4 10221625
18:00+14в68555 0.2 10221008
21:00+10всв713538 0.2 1024489
18 апреля, вс
вс1800:00+8всв51357100 0.0 1025447
03:00+6всв51162100 0.0 1025345
06:00+5всв6136332 0.0 1026367
09:00+9в810460 0.0 1025829
12:00+13всв78360 0.0 10251514
15:00+14всв78345 0.0 10251993
18:00+12всв68435 0.0 10251135
21:00+9всв61258100 0.0 1027500